Find HG-01

NORAD ID: 59069 Int'l Des: 2024-040 Owner: CNSA Country: CN operational
HEOCIRCULARGSOGEO

实时位置

正在加载3D地球...

关于 HG-01

正在加载描述...

即将过境

Passes for default location (London). Set your location on the main map for personalized predictions.

高度历史

Loading altitude history...

两行轨道根数

1 59069U 24040A 26121.70563986 .00000161 00000-0 00000+0 0 9992
2 59069 0.0655 325.0661 0004021 64.6732 117.5288 1.00273190 6860
Epoch: May 1, 2026 • Age: 15 hours

当前状态

高度 35769.3 km
速度 3.08 km/s
星下点 0.07°N, 33.59°E
发射日期 Feb 29, 2024
运行时间 2.1 years
类型 other

技术详情

分类 Payload
质量 4000.00 kg
干质量 2000.00 kg
总质量 4000.00 kg
长度 3.00 m
直径 2.00 m
跨度 20.00 m
形状 Box + 2 Pan
制造商 CAST
平台类型 DFH-4
阶段状态 In Orbit
所有者/国家 CNSA/CN

Most Searched